Avalon Airport, Australia

1:13 AM AEDT on February 23, 2017 (GMT +1100)
Avalon

Weather History for YMAV - November, 2013

Change the Weather History Date:

Wednesday, November 20, 2013

  Actual Average Record
Temperature  
Mean Temperature 58 °F -  
Max Temperature 62 °F - - ()
Min Temperature 53 °F - - ()
Degree Days  
Heating Degree Days 8    
Growing Degree Days 8 (Base 50)    
Moisture  
Dew Point 50 °F    
Average Humidity 78    
Maximum Humidity 100    
Minimum Humidity 51    
Precipitation  
Precipitation 0.08 in - - ()
Sea Level Pressure  
Sea Level Pressure 29.88 in    
Wind  
Wind Speed 12 mph ()    
Max Wind Speed 22 mph    
Max Gust Speed -    
Visibility 6.1 miles    
Events Rain    
T = Trace of Precipitation, MM = Missing Value Source: Averaged Metar Reports

Daily Weather History Graph

Daily Weather History Graph

Search for Another Location

Airport or City:

Trip Planner

Search our weather history database for the weather conditions in past years. The results will help you decide how hot, cold, wet, or windy it might be!

Date:

Astronomy

Nov. 20, 2013 Rise Set
Actual Time 5:58 AM AEDT 8:17 PM AEDT
Civil Twilight 5:28 AM AEDT 8:47 PM AEDT
Nautical Twilight 4:51 AM AEDT 9:24 PM AEDT
Astronomical Twilight 4:11 AM AEDT 10:04 PM AEDT
Moon 10:27 PM AEDT (11/20) 7:50 AM AEDT (11/20)
Length of Visible Light 15h 19m
Length of Day
14h 19m
Waning Gibbous, 95% of the Moon is Illuminated
Nov 20
Waning Gibbous
Nov 26
Last Quarter
Dec 3
New
Dec 10
First Quarter
Dec 17
Full

Hourly Weather History & Observations

Time (AEDT) Temp. Dew Point Humidity Pressure Visibility Wind Dir Wind Speed Gust Speed Precip Events Conditions
12:00 AM 58 °F 54 °F 83% 29.92 in - South 9.2 mph - -   Overcast
12:00 AM 59.0 °F 53.6 °F 82% 29.92 in 6.2 mi South 9.2 mph - N/A   Overcast
12:30 AM 57.2 °F 53.6 °F 88% 29.89 in 6.2 mi SE 6.9 mph - N/A   Overcast
1:00 AM 57.2 °F 53.6 °F 88% 29.89 in 6.2 mi SSW 6.9 mph - N/A   Overcast
1:30 AM 57.2 °F 53.6 °F 88% 29.86 in 6.2 mi South 9.2 mph - N/A   Overcast
2:00 AM 57.2 °F 53.6 °F 88% 29.89 in 6.2 mi South 5.8 mph - N/A   Overcast
2:30 AM 57.2 °F 53.6 °F 88% 29.86 in 6.2 mi South 9.2 mph - N/A   Overcast
2:52 AM 57.2 °F 53.6 °F 88% 29.86 in 6.2 mi SSE 10.4 mph - N/A   Overcast
3:00 AM 57 °F 53 °F 82% 29.86 in - South 10.4 mph - -   Overcast
3:01 AM 57.2 °F 53.6 °F 88% 29.86 in 6.2 mi South 10.4 mph - N/A   Overcast
3:31 AM 57.2 °F 51.8 °F 82% 29.86 in 6.2 mi South 9.2 mph - N/A   Overcast
5:30 AM - - N/A% 0.00 in 6.2 mi South 13.8 mph - N/A   Overcast
6:00 AM 56 °F 49 °F 71% 29.90 in - South 13.8 mph - -  
6:00 AM 55.4 °F 50.0 °F 82% 29.89 in 6.2 mi South 13.8 mph - N/A   Overcast
6:30 AM 57.2 °F 50.0 °F 77% 29.89 in 6.2 mi South 12.7 mph - N/A   Overcast
7:00 AM 57.2 °F 50.0 °F 77% 29.89 in 6.2 mi SSE 12.7 mph - N/A   Overcast
7:30 AM 57.2 °F 50.0 °F 77% 29.92 in 6.2 mi South 18.4 mph - N/A   Overcast
8:00 AM 57.2 °F 48.2 °F 72% 29.92 in 6.2 mi SSE 16.1 mph - N/A   Overcast
8:30 AM 57.2 °F 48.2 °F 72% 29.92 in 6.2 mi South 13.8 mph - N/A   Overcast
9:00 AM 59 °F 50 °F 63% 29.93 in - SSE 16.1 mph - -   Overcast
9:00 AM 59.0 °F 50.0 °F 72% 29.92 in 6.2 mi SSE 16.1 mph - N/A   Overcast
9:30 AM 59.0 °F 50.0 °F 72% 29.92 in 6.2 mi SSE 15.0 mph - N/A   Overcast
10:00 AM 59.0 °F 50.0 °F 72% 29.92 in 6.2 mi SSE 15.0 mph - N/A   Overcast
10:30 AM 59.0 °F 50.0 °F 72% 29.92 in 6.2 mi SSE 16.1 mph - N/A   Overcast
11:00 AM 60.8 °F 50.0 °F 68% 29.92 in 6.2 mi South 16.1 mph - N/A   Overcast
11:30 AM 60.8 °F 50.0 °F 68% 29.92 in 6.2 mi SSE 16.1 mph - N/A   Mostly Cloudy
12:00 PM 61 °F 47 °F 51% 29.91 in - SSE 17.3 mph - -  
12:00 PM 60.8 °F 48.2 °F 63% 29.89 in 6.2 mi SSE 17.3 mph - N/A   Mostly Cloudy
12:30 PM 60.8 °F 46.4 °F 59% 29.89 in 6.2 mi SSE 18.4 mph - N/A   Mostly Cloudy
1:00 PM 62.6 °F 48.2 °F 59% 29.92 in 6.2 mi South 18.4 mph - N/A   Mostly Cloudy
1:30 PM 62.6 °F 48.2 °F 59% 29.89 in 6.2 mi South 18.4 mph - N/A   Overcast
2:00 PM 60.8 °F 46.4 °F 59% 29.89 in 6.2 mi South 18.4 mph - N/A   Overcast
2:30 PM 60.8 °F 46.4 °F 59% 29.86 in 6.2 mi South 20.7 mph - N/A   Overcast
3:00 PM 59 °F 46 °F 51% 29.87 in - South 21.9 mph - -  
3:00 PM 59.0 °F 46.4 °F 63% 29.86 in 6.2 mi South 21.9 mph - N/A   Overcast
3:30 PM 59.0 °F 46.4 °F 63% 29.89 in 6.2 mi South 17.3 mph - N/A   Overcast
4:00 PM 57.2 °F 44.6 °F 63% 29.92 in 6.2 mi South 15.0 mph - N/A   Overcast
4:30 PM 59.0 °F 46.4 °F 63% 29.89 in 6.2 mi South 16.1 mph - N/A   Overcast
5:00 PM 57.2 °F 48.2 °F 72% 29.89 in 6.2 mi SSW 16.1 mph - N/A Rain Light Rain
5:30 PM 55.4 °F 50.0 °F 82% 29.86 in 6.2 mi South 16.1 mph - N/A Rain Light Rain
6:00 PM 54 °F 50 °F 82% 29.88 in - South 17.3 mph - -   Overcast
6:00 PM 53.6 °F 50.0 °F 88% 29.86 in 6.2 mi South 17.3 mph - N/A Rain Light Rain
6:30 PM 53.6 °F 50.0 °F 88% 29.86 in 6.2 mi SSW 16.1 mph - N/A   Drizzle
7:00 PM 53.6 °F 50.0 °F 88% 29.89 in 6.2 mi SW 12.7 mph - N/A Rain Light Rain
7:30 PM 53.6 °F 51.8 °F 94% 29.86 in 6.2 mi South 13.8 mph - N/A Rain Light Rain
8:00 PM 53.6 °F 51.8 °F 94% 29.83 in 6.2 mi South 18.4 mph - N/A Rain Light Rain
8:08 PM 53.6 °F 51.8 °F 94% 29.83 in 6.2 mi South 19.6 mph - N/A Rain Light Rain
8:30 PM 53.6 °F 53.6 °F 100% 29.83 in 6.2 mi SSW 19.6 mph - N/A Rain Light Rain
9:00 PM 54 °F 52 °F 90% 29.84 in - SSW 20.7 mph - -  
9:00 PM 53.6 °F 51.8 °F 94% 29.83 in 6.2 mi SSW 20.7 mph - N/A Rain Light Rain Showers
9:30 PM 53.6 °F 51.8 °F 94% 29.86 in 6.2 mi SSW 17.3 mph - N/A   Overcast
10:00 PM 53.6 °F 51.8 °F 94% 29.83 in 6.2 mi SW 17.3 mph - N/A   Overcast
10:30 PM 53.6 °F 51.8 °F 94% 29.83 in 6.2 mi SW 15.0 mph - N/A   Overcast
11:00 PM 53.6 °F 51.8 °F 94% 29.83 in 5.6 mi WSW 15.0 mph - N/A   Drizzle
11:08 PM 53.6 °F 51.8 °F 94% 29.83 in 3.7 mi West 13.8 mph - N/A   Drizzle
11:30 PM 53.6 °F 51.8 °F 94% 29.83 in - West 12.7 mph - N/A   Drizzle